Weather in Kinsale

Ireland     51°42′20″N   8°31′19″W
temp.,
°C
wind,
m/s
gust,
m/s
humid.,
%
clouds,
%
prec.,
mm/h
press.,
hPa
HPBL,
m
16 october, sat
sat1601:00+10sse119581 0.0 102010
04:00+12s2388100 0.0 101851
07:00+11s3694100 0.1 1017122
10:00+13s6987100 0.1 1016666
13:00+15s81078100 0.1 1015927
16:00+14s71086100 0.0 1014776
19:00+14s71293100 0.6 1012538
22:00+14ssw81496100 1.4 1012593
17 october, sun
sun1701:00+14ssw81498100 5.3 1011697
04:00+14ssw81398100 1.7 1011680
07:00+14sw489699 1.8 1011383
10:00+13sw489294 0.0 1012376
13:00+15sw578598 0.0 1012463
16:00+14ssw3895100 0.0 1011410
19:00+14s4897100 0.1 1012335
22:00+14sse51097100 0.0 1011436
18 october, mon
mon1801:00+14se61196100 0.0 1009516
04:00+15s91498100 3.1 1006673
07:00+15s81597100 3.4 1006905
10:00+15ssw71398100 0.1 1007471
13:00+17sw6990100 0.1 1008630
16:00+17sw6988100 0.0 1008531
19:00+14s3898100 0.0 1008212
22:00+15s4109795 0.0 1008274
19 october, tue
tue1901:00+15s51097100 0.0 1006315
04:00+15sse5999100 1.6 1004369
07:00+15ssw61498100 1.8 1003692
10:00+15ssw81498100 0.3 1003752
13:00+16ssw81394100 0.3 1002645
16:00+16sw81289100 0.1 1000659
19:00+14ssw5129657 0.5 998478
22:00+14sw61290100 1.9 996533
20 october, wed
wed2001:00+13sw51187100 3.5 994475
04:00+10w13188897 0.9 994901
07:00+8wsw916755 0.9 995981
10:00+10wsw3872100 0.0 994522
13:00+9n6991100 3.3 992594
16:00+11wnw101676100 0.3 9961384
19:00+9wnw7147662 0.3 1000698
22:00+8w5128284 0.0 1003323